Retour au catalogue

COSMOS 1382

ActifMilitaireHEO
NORAD 13295·PAYLOAD·🇷🇺 Russia

Lancé Jun 25, 1982 depuis Plesetsk Cosmodrome

Loading…

Prochains Passages (prochaines 24 heures)

TLE

FraisSource: Space-Track

Époque: Sep 14, 2026, 19:41 UTC

1 13295U 82064A   26257.82055490  .00001064  00000-0  00000-0 0  9996
2 13295  62.2192 130.9099 7342326  44.9825 355.0752  2.00557341282358

Suivez COSMOS 1382 en temps réel avec AllMySat

Download on the App Store